Wetbulb
56.19 56.07 55.92 56.27 56.36 56.65 56.65 56.95 57.12 57.37 57.54 57.55 57.64 57.67 57.73 58.05 58.31 55.29 50.83 54.39 56.01 64.28 73.95 70.75 67.47 64.70 68.77 66.63 68.96 69.55 59.81 56.11 57.45 57.72 58.95 63.94 63.20 67.59 68.68 65.80 67.01 67.68 65.50 65.93 67.44
56.08 56.10 55.98 55.99 56.12 56.32 56.53 56.71 56.84 57.09 57.16 57.27 57.31 57.41 57.62 57.67 53.79 51.08 57.14 63.55 66.03 66.99 64.46 63.50 61.17 60.43 61.86 64.52 65.90 64.46 57.66 58.71 61.74 61.04 60.36 62.89 64.56 65.67 65.05 65.01 64.32 64.17 66.81 66.86 66.88
56.01 55.84 56.00 55.85 56.16 56.10 56.31 56.39 56.51 56.72 56.67 56.87 57.13 57.45 57.24 56.61 50.55 53.15 64.56 65.59 67.75 68.88 60.41 56.81 59.50 56.75 53.08 57.13 63.33 62.81 59.20 62.17 63.00 63.01 62.52 62.02 61.69 66.49 64.54 62.06 63.54 61.59 63.33 64.97 65.61
55.77 55.90 56.15 55.97 56.03 56.01 56.26 56.34 56.37 56.39 56.49 56.72 57.39 58.30 56.82 53.67 45.93 55.61 71.13 69.09 68.15 63.51 58.38 55.25 51.95 50.21 49.94 51.89 58.14 57.96 62.45 63.45 63.67 64.04 62.27 60.75 62.55 64.60 65.70 64.97 66.83 64.99 64.97 65.29 66.84
55.82 56.28 56.60 56.49 56.36 56.71 56.69 56.58 56.34 55.97 56.15 56.59 57.53 57.76 54.45 48.82 48.29 58.74 71.27 72.95 64.88 62.24 56.80 53.71 50.07 48.32 49.17 52.10 54.70 56.92 60.54 63.30 64.39 64.29 62.24 62.69 62.31 63.12 64.33 67.28 67.36 65.38 65.24 65.24 66.66
56.13 56.31 56.19 56.07 56.36 56.42 56.43 56.06 56.01 55.88 56.25 56.28 57.53 57.95 50.50 44.53 56.11 58.28 61.02 64.87 61.25 58.86 56.71 54.03 50.58 51.30 51.19 52.88 53.69 59.54 59.71 61.44 63.29 63.22 63.52 61.42 61.89 65.03 65.85 67.19 66.28 65.23 64.18 65.53 67.13
56.04 55.90 55.74 55.73 55.93 56.03 55.94 55.40 55.57 56.60 57.73 56.48 57.99 56.51 51.13 47.06 55.52 56.25 55.93 61.61 60.95 57.71 54.34 56.06 53.47 52.46 52.05 51.58 56.58 56.23 56.24 59.28 60.62 62.83 62.10 63.21 59.72 63.23 66.87 67.18 65.39 65.14 65.50 66.86 67.72
55.67 55.65 55.47 55.41 55.45 55.35 54.86 54.55 55.30 57.42 57.96 56.36 59.63 55.78 47.01 57.26 57.25 56.19 55.84 56.21 60.70 59.06 53.74 56.01 54.85 50.50 49.27 51.83 51.70 53.02 52.63 49.87 56.13 61.90 62.97 61.84 55.65 63.39 66.36 65.93 64.67 65.34 66.10 66.51 67.20
55.26 55.14 55.04 54.85 54.73 54.32 53.64 54.24 56.37 58.80 58.01 59.31 54.24 52.07 47.10 60.04 55.99 57.29 57.26 57.74 56.92 54.50 53.59 56.44 51.65 47.52 48.19 45.87 43.11 46.46 45.45 47.92 52.40 61.80 61.05 59.80 57.01 63.64 66.60 65.25 64.28 64.81 65.56 66.02 66.61
54.71 54.60 54.44 54.18 53.85 53.14 53.09 54.31 56.14 57.14 58.48 58.67 57.91 49.36 50.33 50.29 51.23 53.58 57.36 58.65 55.43 53.35 51.78 50.54 47.20 43.05 44.28 41.83 38.69 41.83 44.92 47.59 50.34 58.26 59.57 58.80 57.75 62.50 64.21 65.09 64.59 64.68 65.49 65.46 65.91
54.54 54.17 54.11 53.63 53.08 52.33 50.61 45.69 43.36 40.44 43.82 39.97 42.13 49.64 48.51 50.12 51.08 52.67 54.29 56.69 54.04 51.10 45.83 48.67 44.20 41.40 44.29 46.01 46.39 48.41 47.88 48.39 52.90 56.64 58.86 58.45 57.77 60.27 63.73 64.03 64.28 64.71 65.44 65.56 65.85
54.15 53.86 53.55 53.14 52.30 52.28 48.18 42.19 41.43 43.80 37.63 44.99 45.32 45.06 46.86 46.57 44.25 47.59 52.18 52.54 50.28 46.82 48.69 45.57 43.71 47.15 49.32 48.77 47.62 47.86 47.45 48.58 53.05 56.02 55.04 57.75 57.10 60.34 61.87 62.39 63.97 63.50 63.38 65.23 66.22
53.91 53.63 52.93 52.33 51.84 48.04 45.42 45.87 48.47 42.14 34.52 41.32 44.29 43.93 44.61 45.15 43.45 44.80 48.11 49.67 49.09 45.45 47.56 45.79 48.66 51.49 50.41 48.85 47.66 47.54 46.21 48.40 49.47 53.31 53.54 57.67 55.33 57.16 60.24 60.58 62.34 64.31 65.01 65.38 64.79
53.37 53.12 52.39 51.68 45.81 45.58 45.86 48.55 50.66 44.02 30.44 38.60 42.68 46.08 46.47 45.93 42.67 50.73 48.93 48.89 49.30 46.42 46.34 47.90 52.11 51.32 50.22 49.39 49.86 44.64 50.89 51.12 51.24 48.77 44.67 53.35 47.64 54.23 57.42 57.85 60.58 62.07 63.94 64.48 65.13
53.23 52.38 51.24 51.07 43.88 44.44 48.26 48.33 49.93 41.70 24.92 43.82 42.62 48.49 45.27 41.75 44.32 46.90 51.15 47.96 45.71 46.52 45.29 45.10 50.18 50.11 49.53 50.57 52.21 48.20 51.78 50.85 51.09 47.17 43.59 48.66 47.17 52.02 57.02 55.48 57.69 60.92 63.44 64.07 64.76
52.68 51.57 51.26 47.53 44.75 47.46 49.07 49.70 42.03 31.70 26.68 39.09 42.63 40.48 40.12 41.36 42.33 46.32 45.42 47.94 48.81 47.19 47.00 47.02 51.19 53.35 52.42 54.07 53.91 53.16 50.20 49.43 49.29 44.31 40.16 47.03 44.67 47.36 53.20 55.97 57.70 60.55 62.55 63.78 61.93
51.43 50.47 49.94 50.05 43.16 47.03 48.00 40.65 30.09 26.07 39.63 36.67 35.70 38.88 37.36 37.47 39.30 41.72 40.09 39.14 36.79 36.07 40.92 46.78 47.41 49.94 55.11 51.18 52.88 51.87 44.53 39.96 36.13 37.96 37.98 46.04 42.97 45.69 56.44 58.99 59.79 59.98 62.03 63.69 63.20
50.27 49.72 49.46 50.92 47.98 48.42 42.69 34.95 25.07 35.74 33.65 38.27 37.71 37.88 35.50 38.57 37.54 39.18 37.70 35.39 42.08 40.30 37.24 39.84 38.94 47.34 50.49 51.32 49.44 48.31 47.35 37.54 32.73 33.63 39.71 42.23 39.56 45.04 57.68 60.71 61.95 62.22 62.83 63.93 63.36
49.98 45.96 45.89 48.98 50.96 47.03 37.36 27.67 28.55 34.31 37.21 36.38 36.13 33.31 32.87 37.25 37.79 37.47 35.70 36.15 40.27 41.74 33.75 32.83 40.67 50.10 51.77 52.12 52.84 48.39 45.12 45.91 37.06 36.09 35.62 39.19 42.84 48.02 51.36 57.81 61.34 61.76 62.42 62.58 63.02
45.65 42.18 43.78 51.20 51.00 41.75 33.78 31.46 34.07 39.94 39.07 37.68 31.10 34.24 29.26 32.50 34.26 34.54 35.05 40.48 39.49 43.04 43.12 37.82 33.28 46.51 50.09 52.72 52.75 50.66 48.19 40.51 36.33 34.31 30.83 37.11 39.05 43.17 46.57 48.29 56.19 59.85 61.42 62.56 63.54
40.58 38.40 46.03 52.11 46.34 38.40 29.30 30.75 37.44 41.84 41.41 36.53 33.30 31.35 30.61 31.40 31.72 32.76 35.59 39.53 41.84 41.11 42.04 38.67 35.18 40.92 45.09 46.90 47.90 44.77 46.35 43.84 42.57 37.27 36.41 33.07 39.24 46.23 46.87 48.53 49.35 55.73 62.04 63.17 64.46
39.12 34.08 46.03 50.23 36.78 34.59 32.34 37.08 41.05 39.55 40.63 38.26 37.67 34.72 32.46 33.94 32.36 33.17 34.62 38.21 43.27 42.22 36.36 40.40 38.07 33.75 40.85 47.84 49.10 51.97 43.47 44.37 41.17 35.50 36.05 37.18 42.03 50.74 50.50 50.87 51.93 52.37 61.26 63.83 66.05
38.60 36.43 45.69 43.66 30.54 31.59 35.69 37.82 40.96 39.38 38.72 37.69 35.96 35.92 35.66 32.64 29.80 35.21 37.48 42.34 42.80 41.26 38.05 39.97 37.66 30.40 37.06 39.81 44.89 43.29 49.17 43.06 40.59 39.03 37.06 38.99 41.60 49.26 49.58 51.20 52.94 53.41 56.57 64.79 66.37
37.84 32.92 38.05 39.20 38.52 33.34 33.17 34.93 35.74 42.22 40.37 39.40 37.27 36.17 33.68 30.60 34.32 32.98 35.80 40.39 42.02 41.16 43.39 41.75 35.81 33.51 29.71 35.82 41.20 41.07 45.37 45.60 45.05 40.57 40.01 41.20 42.77 46.84 49.51 50.90 52.03 52.94 56.15 62.63 65.91
37.64 33.32 36.60 31.86 34.34 35.46 35.64 35.80 35.19 35.10 40.28 40.50 36.88 35.96 32.68 28.88 29.52 32.00 36.65 37.92 40.03 41.75 40.55 37.82 31.85 32.94 35.17 38.61 41.23 42.78 46.62 46.62 43.03 43.58 42.20 43.43 44.14 46.49 48.19 52.04 52.06 53.68 55.78 60.84 65.01
36.52 35.60 39.65 37.40 38.65 35.83 35.64 34.61 35.57 37.55 37.55 35.86 35.61 37.20 37.32 29.08 31.99 30.78 34.91 35.03 34.94 38.84 36.58 37.82 31.16 32.89 32.17 42.84 44.83 44.83 48.56 48.13 46.96 45.73 44.65 43.89 44.82 48.86 50.89 54.54 54.63 55.57 56.94 61.20 64.54
42.22 42.64 40.54 38.65 37.05 35.30 35.17 36.89 36.69 37.60 39.22 40.44 38.48 36.66 34.73 36.06 38.28 39.19 39.88 39.04 38.54 37.40 36.14 34.47 30.85 29.26 29.21 41.79 45.43 41.57 46.13 47.90 47.24 47.44 47.04 43.09 45.94 50.72 52.89 53.76 53.46 55.11 57.54 57.47 61.20
MSLP
1019.52 1018.96 1018.37 1017.76 1017.21 1016.76 1016.31 1015.76 1015.21 1014.75 1014.39 1014.06 1013.64 1013.40 1013.22 1012.98 1012.61 1012.12 1010.98 1007.90 1007.99 1008.06 1008.08 1008.96 1009.37 1009.25 1009.64 1009.71 1009.62 1009.50 1009.93 1009.46 1008.73 1008.12 1007.98 1007.76 1007.38 1006.91 1007.10 1007.83 1008.54 1009.03 1009.76 1011.34 1012.50
1019.41 1018.83 1018.26 1017.68 1017.01 1016.37 1015.88 1015.49 1014.99 1014.40 1013.97 1013.72 1013.40 1013.01 1012.88 1012.74 1012.24 1010.41 1006.16 1006.32 1006.90 1007.38 1008.16 1008.53 1008.89 1009.18 1009.67 1009.49 1009.42 1009.38 1009.18 1007.96 1006.95 1006.16 1006.28 1006.35 1006.58 1006.79 1007.75 1008.42 1009.36 1009.75 1010.81 1012.00 1012.77
1019.23 1018.64 1018.03 1017.44 1016.78 1016.16 1015.56 1014.94 1014.52 1014.08 1013.66 1013.22 1012.99 1012.77 1012.57 1012.56 1011.58 1006.21 1003.32 1004.64 1005.66 1006.88 1007.49 1007.90 1008.31 1008.80 1009.30 1009.13 1008.95 1008.14 1007.37 1006.26 1005.66 1005.21 1005.20 1005.66 1006.47 1006.49 1007.86 1008.92 1008.66 1009.57 1010.69 1012.05 1012.82
1019.11 1018.40 1017.73 1017.04 1016.31 1015.66 1015.09 1014.60 1014.05 1013.56 1013.22 1012.96 1012.68 1012.42 1012.41 1012.34 1009.04 1003.53 1002.90 1003.56 1005.12 1006.50 1007.38 1007.79 1008.39 1008.79 1008.85 1008.59 1007.73 1007.45 1005.96 1005.92 1004.61 1004.83 1004.99 1005.61 1006.37 1007.11 1006.89 1007.59 1008.88 1009.17 1009.49 1010.94 1012.20
1019.02 1018.22 1017.42 1016.60 1015.80 1015.10 1014.53 1014.02 1013.46 1013.02 1012.68 1012.50 1012.29 1012.30 1012.50 1011.58 1007.05 1003.04 1003.15 1003.39 1005.20 1006.04 1006.61 1007.16 1007.74 1008.21 1008.00 1007.30 1007.20 1006.66 1005.42 1004.96 1004.22 1004.32 1004.82 1005.80 1006.14 1006.72 1007.34 1007.75 1009.24 1010.30 1010.92 1011.33 1012.00
1019.10 1018.29 1017.35 1016.47 1015.52 1014.62 1013.93 1013.27 1012.73 1012.28 1011.80 1011.81 1011.80 1011.97 1012.22 1009.94 1003.89 1003.08 1003.64 1004.26 1004.35 1005.48 1006.17 1006.62 1006.62 1006.93 1007.23 1006.66 1006.40 1004.97 1004.99 1004.62 1004.04 1004.41 1005.25 1005.53 1006.07 1006.51 1008.08 1008.01 1009.55 1010.15 1011.07 1011.56 1011.86
1018.99 1018.16 1017.20 1016.26 1015.34 1014.35 1013.32 1012.46 1011.62 1011.16 1010.65 1010.93 1011.23 1011.48 1011.13 1006.51 1003.48 1003.47 1003.71 1004.08 1004.04 1004.32 1005.24 1005.48 1005.71 1006.42 1006.28 1006.40 1005.50 1004.93 1005.00 1004.30 1004.00 1004.14 1004.86 1005.32 1006.52 1007.74 1008.84 1009.41 1009.66 1010.59 1011.08 1011.28 1011.78
1018.90 1018.08 1017.20 1016.07 1015.04 1014.17 1013.02 1011.83 1010.58 1010.49 1009.99 1010.43 1010.68 1010.84 1009.29 1004.72 1004.11 1003.93 1003.74 1003.70 1003.75 1003.86 1003.93 1004.54 1005.36 1006.07 1006.08 1005.65 1005.14 1005.01 1004.81 1004.27 1003.53 1003.93 1004.30 1004.66 1006.23 1007.65 1008.33 1008.50 1009.57 1009.94 1010.62 1011.12 1011.40
1018.83 1017.90 1016.99 1015.92 1014.79 1013.97 1012.66 1011.17 1009.96 1010.05 1010.19 1010.41 1010.64 1010.46 1006.91 1003.93 1004.04 1002.81 1003.18 1002.73 1003.40 1004.00 1004.31 1004.53 1005.52 1005.86 1005.95 1006.10 1006.00 1004.85 1004.53 1004.06 1003.61 1003.36 1004.06 1004.83 1006.26 1007.64 1008.50 1008.25 1008.18 1009.30 1009.86 1010.47 1011.03
1018.60 1017.76 1016.69 1015.62 1014.46 1013.50 1012.32 1010.55 1009.46 1009.86 1010.18 1010.18 1010.04 1010.20 1005.54 1004.02 1003.49 1002.62 1002.19 1002.29 1003.13 1003.88 1004.71 1004.84 1005.23 1005.43 1005.58 1005.76 1004.98 1004.82 1004.40 1003.66 1003.02 1003.12 1003.85 1004.78 1005.51 1007.14 1007.52 1008.18 1008.39 1008.84 1009.28 1009.52 1009.19
1018.56 1017.50 1016.64 1015.38 1014.14 1013.25 1012.40 1010.97 1010.32 1010.27 1009.66 1009.62 1008.68 1008.18 1006.16 1004.72 1003.88 1002.37 1002.50 1002.24 1002.77 1003.45 1003.99 1004.08 1004.75 1003.75 1003.42 1004.41 1004.62 1004.29 1003.87 1003.26 1002.03 1001.84 1003.20 1004.25 1005.07 1005.84 1006.54 1008.06 1007.95 1008.76 1008.86 1008.81 1008.79
1018.56 1017.56 1016.59 1015.41 1013.96 1013.18 1012.98 1012.63 1012.31 1012.34 1009.92 1007.63 1006.94 1006.45 1005.64 1005.25 1004.62 1002.48 1002.20 1002.08 1002.55 1002.56 1003.10 1003.80 1002.62 1002.57 1003.39 1003.76 1004.06 1003.84 1003.40 1002.62 1001.84 1001.02 1002.00 1003.70 1004.81 1005.88 1006.52 1006.74 1006.72 1006.98 1007.63 1007.69 1007.76
1018.08 1017.26 1016.10 1015.24 1013.63 1012.92 1013.12 1011.94 1011.28 1011.42 1011.12 1007.50 1006.08 1005.48 1004.72 1004.86 1004.88 1003.44 1003.52 1002.52 1002.10 1002.50 1002.25 1001.94 1001.07 1002.10 1002.34 1002.56 1002.80 1002.61 1002.52 1002.21 1001.96 1001.10 1001.37 1003.21 1004.97 1006.49 1007.78 1007.76 1007.01 1006.76 1006.32 1005.62 1005.29
1017.66 1016.82 1016.08 1015.29 1013.63 1013.96 1012.65 1011.18 1010.99 1011.13 1010.95 1007.72 1006.05 1005.20 1004.81 1004.46 1004.33 1003.76 1003.13 1002.93 1001.99 1001.54 1002.02 1001.42 1000.93 1000.91 1001.23 1001.05 1001.34 1001.46 1001.44 1001.74 1002.01 1002.11 1002.35 1002.15 1004.90 1005.94 1006.57 1006.75 1006.49 1005.56 1005.90 1004.95 1005.00
1017.61 1016.60 1015.77 1015.41 1015.13 1014.10 1011.82 1011.18 1010.64 1010.83 1010.32 1006.97 1006.33 1005.69 1006.01 1006.39 1005.60 1004.03 1004.14 1003.11 1002.00 1001.66 1001.16 999.40 999.85 999.95 999.86 999.15 999.95 1000.01 1001.18 1001.57 1001.96 1002.42 1002.86 1002.38 1003.90 1004.31 1005.49 1005.57 1005.60 1005.11 1004.24 1004.16 1004.19
1017.44 1016.26 1015.88 1014.97 1014.86 1012.44 1011.79 1011.05 1010.68 1011.56 1009.71 1007.60 1007.06 1006.71 1006.10 1006.54 1006.19 1005.13 1004.93 1004.85 1003.00 1001.88 1000.98 1000.02 999.52 998.98 998.41 998.85 999.38 999.99 1000.92 1001.46 1001.84 1002.59 1002.83 1001.84 1003.11 1003.34 1004.32 1003.28 1003.02 1003.09 1002.94 1002.98 1003.57
1016.89 1015.90 1015.10 1014.59 1013.34 1011.79 1012.08 1011.83 1012.18 1011.49 1009.42 1008.95 1008.46 1008.19 1008.06 1007.83 1007.16 1006.73 1006.80 1006.96 1007.23 1005.52 1001.67 1000.58 998.89 998.47 998.04 998.58 998.93 999.72 1000.62 1002.05 1002.46 1002.51 1002.29 1001.52 1002.04 1001.07 1001.22 1001.34 999.90 1000.70 1001.26 1001.81 1002.40
1016.56 1015.14 1014.16 1013.37 1012.22 1012.30 1013.09 1013.23 1013.08 1011.82 1010.73 1009.98 1009.52 1009.33 1009.73 1009.22 1008.80 1008.45 1008.13 1008.31 1008.62 1008.07 1005.72 1001.89 999.79 997.59 996.90 997.32 998.12 998.88 1000.07 1001.26 1002.13 1002.55 1002.46 1001.34 1000.22 998.57 998.53 998.75 998.93 998.71 999.06 1000.00 1001.24
1016.44 1014.72 1014.11 1012.63 1012.32 1012.87 1014.11 1014.22 1013.07 1012.17 1011.17 1010.66 1010.32 1010.59 1011.04 1011.06 1010.55 1009.92 1010.00 1009.82 1009.83 1010.53 1010.20 1006.90 999.96 997.32 997.01 996.57 997.06 997.78 998.59 1000.16 1001.61 1002.23 1002.14 1000.41 999.10 997.86 997.28 997.57 998.49 999.00 999.96 1000.32 1000.32
1017.69 1016.19 1014.30 1012.43 1011.75 1012.68 1014.23 1014.12 1012.96 1011.99 1011.25 1011.18 1011.89 1012.20 1012.19 1012.04 1011.80 1011.34 1010.65 1010.42 1010.65 1011.54 1012.39 1010.08 1005.46 998.19 996.32 996.23 996.17 995.78 997.40 998.95 999.98 1001.42 1001.75 1000.06 998.28 996.77 996.39 996.52 996.54 997.16 997.97 998.41 998.60
1018.29 1016.92 1013.59 1012.36 1011.64 1013.10 1014.55 1014.31 1013.11 1012.27 1011.67 1011.90 1012.36 1012.74 1013.09 1012.78 1012.54 1012.18 1011.45 1011.33 1011.38 1011.75 1012.50 1011.39 1008.57 1000.59 997.62 995.94 994.81 995.83 995.99 997.11 998.89 1000.06 1000.66 999.89 996.80 995.11 995.07 995.03 995.36 995.34 995.80 996.18 996.91
1019.50 1017.88 1013.86 1013.02 1013.63 1014.88 1015.68 1015.36 1014.17 1013.02 1012.35 1012.33 1012.50 1012.90 1013.40 1013.29 1013.04 1012.56 1012.04 1011.82 1011.58 1012.02 1012.51 1012.10 1009.78 1005.52 999.42 995.84 995.24 995.21 995.74 996.70 997.52 999.07 999.44 998.54 995.76 994.18 993.89 993.75 993.63 993.86 993.89 994.45 995.45
1020.48 1018.34 1014.88 1014.62 1016.62 1017.08 1016.55 1015.78 1014.65 1013.86 1013.28 1012.88 1013.15 1013.52 1013.60 1013.83 1013.82 1012.95 1012.49 1012.21 1011.98 1012.43 1013.56 1013.31 1010.99 1008.09 1001.06 997.99 996.16 995.77 995.36 995.35 996.22 997.27 997.75 998.07 995.24 993.61 993.16 992.89 992.66 991.66 992.50 993.11 994.11
1020.93 1019.80 1018.00 1017.52 1018.23 1018.72 1018.20 1016.41 1015.21 1014.29 1013.70 1013.75 1013.76 1013.78 1014.01 1013.87 1013.66 1013.24 1012.54 1012.45 1012.66 1013.00 1013.56 1014.10 1012.52 1009.78 1005.84 1001.12 999.43 996.42 995.21 995.00 995.06 995.90 996.56 996.19 994.90 994.11 993.07 992.23 991.20 990.58 991.08 991.92 993.11
1021.22 1020.94 1020.31 1019.58 1019.00 1019.25 1018.84 1017.38 1016.02 1015.16 1014.49 1014.45 1014.14 1014.21 1014.43 1014.16 1013.42 1012.86 1012.18 1011.96 1012.14 1012.57 1013.65 1014.54 1012.48 1009.97 1006.54 1002.99 1000.20 997.80 995.20 993.94 994.54 994.59 995.27 995.40 994.99 993.84 993.27 992.42 991.43 990.72 991.05 991.74 992.49
1021.41 1021.11 1020.71 1020.27 1019.94 1019.51 1018.60 1017.33 1016.48 1015.67 1015.59 1014.72 1014.58 1014.35 1013.94 1013.87 1013.03 1012.06 1011.60 1011.34 1011.86 1012.76 1013.50 1013.74 1012.14 1009.88 1005.52 1000.75 998.62 996.80 994.58 993.64 993.72 993.77 994.28 994.56 994.25 993.18 993.03 992.63 991.78 991.41 991.77 992.02 992.41
1020.61 1020.67 1020.75 1020.11 1019.78 1019.58 1018.76 1017.80 1017.12 1016.82 1015.56 1014.77 1014.56 1014.19 1013.24 1012.32 1011.71 1010.99 1010.44 1010.36 1010.68 1011.18 1012.11 1012.66 1011.60 1009.82 1005.16 1000.73 997.99 996.73 995.65 994.29 993.66 993.83 994.31 995.01 994.21 993.92 993.62 994.19 993.65 992.57 992.54 992.85 992.97
Wind_Speed
21 21 22 22 22 21 21 21 22 21 20 19 19 17 15 13 12 4 12 14 14 13 15 14 7 7 7 4 5 2 1 3 4 9 6 7 7 7 7 15 4 8 10 21 23
22 22 23 23 24 24 23 21 21 21 21 19 18 17 14 12 6 12 17 21 21 21 8 14 11 10 5 6 6 7 4 8 8 7 8 13 8 10 9 10 13 18 19 22 21
24 25 24 25 24 24 24 24 22 20 19 19 17 14 12 7 5 12 9 30 26 16 10 8 9 8 6 5 9 9 9 10 9 5 2 2 6 6 17 7 15 26 27 27 20
25 26 26 26 26 26 25 24 22 21 19 15 14 10 6 2 5 3 1 22 24 16 11 6 5 7 7 10 11 7 13 13 15 5 3 7 5 13 12 8 18 25 31 30 23
26 26 26 26 27 26 25 23 22 21 19 15 10 2 0 2 16 9 3 13 19 17 19 14 11 8 9 11 15 15 19 14 17 9 3 9 6 3 4 20 20 22 25 23 20
25 25 26 27 28 29 27 25 22 20 20 14 10 7 2 7 7 13 2 17 19 18 15 12 11 11 4 12 14 8 19 22 16 6 2 3 5 5 15 25 23 25 24 19 19
25 26 27 28 29 29 30 28 26 22 19 9 9 6 5 21 4 9 1 9 14 23 14 17 13 10 9 3 22 20 18 14 11 15 11 6 4 10 14 14 23 21 20 20 16
25 25 26 28 28 28 28 29 30 22 7 5 9 6 11 9 9 16 10 7 10 17 7 15 13 5 3 7 7 9 8 11 9 16 8 12 8 17 23 25 24 24 20 19 18
25 26 26 28 28 26 28 29 28 8 5 6 5 4 13 9 3 10 11 7 11 5 8 11 7 7 3 4 5 5 10 6 5 19 10 4 12 15 18 22 25 23 22 21 18
26 27 28 29 30 29 28 26 19 4 4 8 2 4 6 3 8 19 9 10 7 11 3 9 5 6 7 5 12 6 5 6 11 15 10 12 14 23 23 22 23 22 22 23 25
26 27 27 31 32 30 16 7 11 8 5 9 16 14 27 18 16 9 9 10 6 6 9 9 11 20 24 16 5 5 7 10 8 10 22 18 20 26 24 18 22 19 22 22 24
24 25 25 28 32 27 1 5 4 8 16 13 14 13 21 8 10 17 9 10 9 17 10 4 21 18 8 10 11 15 10 13 15 14 8 23 22 23 22 22 25 22 21 22 20
26 27 29 28 32 5 4 5 7 5 1 12 5 3 8 5 5 14 3 8 5 8 16 20 7 18 16 16 16 16 16 14 9 8 6 22 12 18 10 9 13 13 19 23 26
29 29 28 30 6 6 7 8 10 2 4 9 7 5 16 3 3 19 3 8 7 15 12 17 21 18 20 21 20 18 18 18 14 8 7 8 9 17 19 20 14 19 21 19 19
31 31 29 17 4 4 10 8 13 6 3 5 8 3 12 8 10 17 18 10 19 11 10 21 21 24 22 27 19 19 10 15 17 6 1 13 5 9 20 21 19 23 25 21 19
32 32 29 3 2 10 8 14 5 7 6 5 7 17 22 18 16 15 15 11 16 18 20 16 13 21 25 17 19 13 11 10 11 4 9 20 8 7 20 31 28 28 25 25 15
35 33 20 3 5 4 7 6 7 4 10 9 9 14 8 18 13 17 17 15 8 12 17 20 24 23 13 19 13 16 7 8 5 8 10 11 5 9 31 33 33 34 29 27 20
36 31 5 6 7 2 5 7 3 9 2 5 10 9 10 20 8 17 14 13 14 17 9 17 20 25 17 15 18 12 16 8 10 6 11 6 9 8 26 36 33 30 32 32 21
32 6 5 6 7 4 6 4 5 6 6 7 7 5 6 13 11 9 10 1 12 21 14 11 21 8 26 21 18 13 18 10 5 1 3 5 6 5 8 14 25 27 22 22 20
10 6 5 8 7 5 5 6 3 8 6 5 5 6 7 10 7 14 6 5 14 17 16 5 12 15 27 16 22 23 9 10 4 11 5 6 6 10 9 11 18 22 29 30 25
4 5 5 17 4 6 3 4 5 10 6 4 3 3 3 5 4 8 6 13 14 18 16 11 5 12 2 16 27 6 17 7 7 7 9 4 11 8 11 12 12 17 28 28 25
4 4 6 10 6 3 3 7 9 9 5 4 2 3 3 5 4 3 7 4 8 10 15 10 6 8 14 12 2 25 7 13 10 10 4 5 14 5 11 12 15 15 26 27 27
5 4 6 6 6 5 6 7 6 10 9 3 1 2 4 4 4 2 4 7 7 6 6 9 3 10 9 5 3 6 14 9 6 8 11 11 12 4 8 8 16 24 20 27 31
3 5 6 5 3 1 5 7 9 11 4 5 4 3 3 3 5 3 6 5 8 9 6 10 5 10 8 7 11 4 11 9 16 9 10 12 11 8 14 15 11 13 16 29 29
1 2 3 5 5 9 8 7 11 8 4 6 5 3 3 5 3 4 7 9 6 3 4 2 9 7 18 26 25 24 12 13 12 12 14 11 8 9 10 11 8 8 12 20 27
1 1 1 5 7 7 5 4 10 7 6 10 5 13 11 7 8 12 13 7 3 3 0 5 6 12 19 17 17 18 8 6 15 11 6 7 8 9 5 9 4 8 14 19 26
2 0 2 3 3 2 3 4 10 15 10 11 12 14 12 12 11 12 15 12 8 6 4 5 4 6 8 9 6 4 8 1 8 10 11 7 10 2 3 8 10 7 12 11 9
Wind_Direction
353 350 346 342 338 335 331 328 325 323 321 318 315 312 311 309 302 244 232 218 191 231 130 155 199 191 180 218 239 263 69 232 219 188 120 11 193 165 110 135 177 181 135 146 156
351 348 344 341 337 333 331 328 326 323 320 317 314 310 310 312 282 241 227 206 207 183 155 166 185 183 177 197 199 198 197 229 203 207 171 170 186 139 133 136 100 98 114 144 154
349 346 342 339 335 332 331 328 326 321 317 315 316 312 310 313 282 246 228 207 195 174 176 164 165 172 191 230 212 204 233 234 251 216 145 173 139 173 135 154 163 146 144 155 160
346 343 339 336 333 332 329 327 323 317 312 311 317 320 308 280 252 242 161 189 190 175 165 175 185 175 170 211 217 260 238 239 263 224 190 158 113 136 187 163 161 152 151 154 161
344 340 337 334 331 330 328 325 318 312 305 301 299 336 231 246 250 265 332 156 166 166 178 180 180 167 196 203 239 236 249 253 244 232 221 108 61 331 164 130 141 144 155 157 162
341 338 335 333 330 329 328 324 315 308 301 290 272 143 179 246 243 238 224 136 166 172 183 182 193 202 228 234 204 230 236 252 263 185 67 105 67 68 133 137 147 151 162 165 172
338 337 334 331 329 328 327 323 318 313 297 260 236 167 227 240 258 351 300 177 173 179 173 198 215 180 191 259 235 249 264 263 250 155 175 137 68 103 134 140 150 160 166 169 177
335 333 332 328 327 328 324 318 312 320 19 173 217 187 251 256 256 264 282 242 184 191 168 181 205 213 192 310 317 226 240 252 243 179 159 158 176 146 164 157 170 167 172 178 184
334 333 333 330 328 329 321 313 308 332 93 148 131 203 262 286 184 266 201 208 168 184 210 171 152 205 280 218 311 244 240 222 220 183 151 184 125 165 178 177 164 172 177 180 189
335 335 333 333 330 330 323 307 302 129 158 185 244 297 273 1 336 309 210 188 166 169 160 200 187 166 221 157 213 220 194 227 229 194 158 186 150 173 191 183 179 178 184 186 187
335 334 336 332 328 326 337 356 13 343 145 228 255 265 289 306 312 298 324 170 173 162 177 195 191 205 212 209 233 250 214 250 264 202 194 191 169 182 177 189 177 184 191 193 197
336 333 334 328 322 322 307 51 313 261 301 301 258 246 249 264 304 301 347 181 170 208 177 156 218 216 191 209 209 235 242 253 268 269 168 188 182 182 176 190 180 179 187 193 191
337 337 334 333 320 3 305 260 311 357 314 300 255 245 268 129 241 289 304 319 211 214 202 209 233 208 201 223 219 222 226 242 233 287 305 158 164 157 197 212 209 213 206 185 181
338 334 335 337 28 325 303 274 318 236 37 279 355 16 2 281 258 337 259 175 259 220 219 227 237 198 212 220 208 221 225 240 248 246 252 184 166 196 178 212 216 212 224 200 191
335 331 333 327 250 309 253 333 313 69 329 60 13 71 338 46 300 355 11 334 223 252 178 222 199 219 216 218 205 224 217 233 241 227 264 257 114 208 184 200 216 223 222 211 199
332 328 336 1 264 242 326 309 47 52 268 328 45 356 2 17 350 353 7 13 291 223 262 232 242 209 227 227 222 205 212 249 241 179 241 253 155 181 184 206 208 220 219 214 207
328 325 325 251 244 318 2 4 44 113 341 1 357 7 20 351 342 15 6 14 11 327 235 232 235 237 221 219 223 217 150 224 263 226 228 242 182 215 201 209 204 204 209 212 216
326 318 233 216 247 28 40 39 78 346 34 325 353 20 23 2 347 348 1 358 32 7 311 215 233 216 216 213 205 214 205 162 208 194 229 162 212 250 194 205 216 206 199 200 200
326 327 308 299 282 94 65 13 220 342 321 350 1 26 16 356 328 351 357 164 42 33 10 330 235 249 221 217 193 201 213 181 140 248 143 225 232 286 201 190 204 206 206 218 209
323 323 289 310 321 88 86 233 269 311 346 43 51 47 339 350 11 349 339 318 353 25 359 303 291 236 231 212 222 209 167 185 174 221 236 276 219 214 225 207 206 196 196 208 201
4 354 265 347 28 58 171 255 326 350 43 60 52 346 303 318 359 315 293 338 359 344 346 317 259 299 270 214 214 193 205 197 153 154 212 223 256 190 222 226 185 195 193 199 196
358 344 303 350 47 24 34 325 315 7 10 39 58 22 325 305 282 323 297 274 331 10 332 319 286 283 241 237 273 213 191 195 199 214 208 176 254 213 217 222 229 209 196 194 193
320 271 315 44 48 351 316 312 313 358 343 51 334 98 205 236 259 183 265 296 304 29 14 349 346 314 306 21 278 206 217 208 153 136 204 208 248 233 250 239 232 217 177 189 190
343 345 329 19 87 47 332 288 326 333 287 13 272 307 312 295 216 245 263 307 2 317 3 5 261 254 279 300 334 259 225 202 190 195 188 213 259 296 287 295 281 182 162 178 184
347 286 179 309 335 324 293 265 300 325 360 348 332 299 296 270 269 239 294 265 1 342 84 355 269 262 267 276 271 260 257 206 194 184 193 211 205 245 262 269 233 153 137 163 175
257 355 353 275 269 295 291 292 309 327 347 311 280 317 309 230 222 274 259 265 154 173 346 230 267 305 288 255 219 239 249 261 208 179 176 165 226 226 264 289 94 131 141 165 175
264 115 156 227 266 263 255 295 297 310 286 268 316 306 286 275 259 263 246 253 191 165 192 202 255 346 269 320 186 76 341 337 202 183 180 181 227 186 104 357 8 88 98 110 156